Location: Augsburg
(48.3836°N, 10.8929°E)
Time: 03:13:06
(UTC+01:00)

ISS - Pass Details

Date: 09 January 2018
Orbit: 402 x 407 km, 51.6° (Epoch: 18 January)

Event Time Altitude Azimuth Distance (km) Brightness Sun altitude
Exits shadow 07:21:27 10° 288° (WNW) 1,502 -1.6 -7.3°
Reaches altitude 10° 07:21:32 10° 288° (WNW) 1,469 -1.7 -7.3°
Maximum altitude 07:24:47 60° 208° (SSW) 469 -3.5 -6.8°
Drops below altitude 10° 07:28:01 10° 127° (SE) 1,465 0.7 -6.3°
Sets 07:30:07 0° 124° (SE) 2,323 2.5 -6.0°
